Location: Bouchavesnes-Bergen
(49.9859°N, 2.9203°E)
Time: 11:41:24
(UTC+00:00)

Cosmos 1782 - Pass Details

Date: 09 March 2021
Orbit: 536 x 551 km, 82.5° (Epoch: 13 April)

Event Time Altitude Azimuth Distance (km) Brightness Sun altitude
Rises 04:39:36 0° 180° (S) 2,678 6.2 -16.0°
Reaches altitude 10° 04:41:44 10° 176° (S) 1,794 5.3 -15.7°
Maximum altitude 04:45:38 62° 97° (E) 614 3.3 -15.1°
Drops below altitude 10° 04:49:34 10° 16° (NNE) 1,816 5.8 -14.5°
Sets 04:51:45 0° 13° (NNE) 2,716 6.7 -14.1°
